Weather History for KMCB - October, 2014

Change the Weather History Date:

Friday, October 31, 2014

  Actual Average Record
Temperature  
Mean Temperature 58 °F -  
Max Temperature 72 °F 74 °F 87 °F (1984)
Min Temperature 45 °F 52 °F 27 °F (1993)
Degree Days  
Heating Degree Days 7    
Growing Degree Days 8 (Base 50)    
Moisture  
Dew Point 44 °F    
Average Humidity 63    
Maximum Humidity 90    
Minimum Humidity 38    
Precipitation  
Precipitation 0.00 in - - ()
Sea Level Pressure  
Sea Level Pressure 30.08 in    
Wind  
Wind Speed 7 mph (NNW)    
Max Wind Speed 21 mph    
Max Gust Speed 28 mph    
Visibility 10 miles    
Events      
Averages and records for this station are not official NWS values.
T = Trace of Precipitation, MM = Missing Value Source: NWS Daily Summary

Daily Weather History Graph

Daily Weather History Graph

Search for Another Location

Airport or City:

Trip Planner

Search our weather history database for the weather conditions in past years. The results will help you decide how hot, cold, wet, or windy it might be!

Date:

Astronomy

Oct. 31, 2014 Rise Set
Actual Time 7:16 AM CDT 6:13 PM CDT
Civil Twilight 6:51 AM CDT 6:38 PM CDT
Nautical Twilight 6:22 AM CDT 7:07 PM CDT
Astronomical Twilight 5:54 AM CDT 7:35 PM CDT
Moon 2:03 PM CDT (10/31) 12:32 AM CDT (10/31)
Length of Visible Light 11h 47m
Length of Day
10h 57m
First Quarter, 57% of the Moon is Illuminated
Oct 31
First Quarter
Nov 6
Full
Nov 14
Last Quarter
Nov 22
New
Nov 29
First Quarter

Hourly Weather History & Observations

Time (CDT) Temp. Dew Point Humidity Pressure Visibility Wind Dir Wind Speed Gust Speed Precip Events Conditions
12:53 AM 48.9 °F 44.1 °F 83% 30.06 in 10.0 mi NNW 3.5 mph - N/A   Clear
1:53 AM 48.0 °F 43.0 °F 83% 30.05 in 10.0 mi NNW 3.5 mph - N/A   Clear
2:53 AM 46.9 °F 43.0 °F 86% 30.04 in 10.0 mi Calm Calm - N/A   Clear
3:53 AM 46.9 °F 43.0 °F 86% 30.03 in 10.0 mi Calm Calm - N/A   Clear
4:53 AM 45.0 °F 42.1 °F 90% 30.02 in 10.0 mi Calm Calm - N/A   Clear
5:53 AM 45.0 °F 42.1 °F 90% 30.02 in 10.0 mi Calm Calm - N/A   Clear
6:53 AM 45.0 °F 42.1 °F 90% 30.03 in 10.0 mi Calm Calm - N/A   Clear
7:53 AM 50.0 °F 44.1 °F 80% 30.04 in 10.0 mi NW 6.9 mph - N/A   Clear
8:53 AM 55.9 °F 46.9 °F 72% 30.06 in 10.0 mi NW 10.4 mph - N/A   Clear
9:53 AM 62.1 °F 46.9 °F 58% 30.07 in 10.0 mi NNW 13.8 mph - N/A   Clear
10:53 AM 64.9 °F 46.0 °F 50% 30.07 in 10.0 mi NNW 11.5 mph - N/A   Clear
11:53 AM 69.1 °F 45.0 °F 42% 30.06 in 10.0 mi NNW 18.4 mph 26.5 mph N/A   Clear
12:53 PM 69.1 °F 44.1 °F 40% 30.04 in 10.0 mi NNW 15.0 mph 25.3 mph N/A   Clear
1:53 PM 70.0 °F 43.0 °F 38% 30.03 in 10.0 mi NNW 19.6 mph 27.6 mph N/A   Clear
2:53 PM 71.1 °F 44.1 °F 38% 30.03 in 10.0 mi NNW 20.7 mph 27.6 mph N/A   Clear
3:53 PM 70.0 °F 45.0 °F 41% 30.04 in 10.0 mi North 17.3 mph 25.3 mph N/A   Partly Cloudy
4:53 PM 69.1 °F 44.1 °F 40% 30.06 in 10.0 mi NNW 18.4 mph 25.3 mph N/A   Scattered Clouds
5:53 PM 64.9 °F 44.1 °F 47% 30.09 in 10.0 mi NNW 12.7 mph 23.0 mph N/A   Clear
6:53 PM 61.0 °F 44.1 °F 54% 30.12 in 10.0 mi NNW 11.5 mph - N/A   Clear
7:53 PM 60.1 °F 44.1 °F 55% 30.16 in 10.0 mi North 13.8 mph 20.7 mph N/A   Partly Cloudy
8:53 PM 55.9 °F 44.1 °F 64% 30.19 in 10.0 mi NNW 8.1 mph - N/A   Clear
9:53 PM 55.0 °F 43.0 °F 64% 30.21 in 10.0 mi North 10.4 mph - N/A   Clear
10:53 PM 52.0 °F 42.1 °F 69% 30.22 in 10.0 mi NNW 5.8 mph - N/A   Clear
11:53 PM 52.0 °F 39.9 °F 63% 30.23 in 10.0 mi North 10.4 mph - N/A   Clear